Other Surface Observations
Issued by NWS Tucson, AZ

Home | Current Version | Previous Version | Text Only | Print | Product List | Glossary On
Versions: 1 2 3 4 5 6 7 8 9 10 11 12 13 14 15 16 17 18 19 20 21 22 23 24 25 26 27 28 29 30 31 32 33 34 35 36 37 38 39 40 41 42 43 44 45 46 47 48 49 50
000
SXUS55 KTWC 180716
OSOTWC

WEATHER ROUNDUP FOR SOUTHEAST ARIZONA
NATIONAL WEATHER SERVICE TUCSON AZ
1215 AM MST THU SEP 18 2014

AZZ504>506-514-180815-
LOCATION       SKY/WX    TMP DP  RH WIND       PRES   REMARKS
TUCSON         CLOUDY    75  66  73 E5        29.84F
DAVIS-MONTHAN  MOCLDY    73  65  74 E6        29.83S
CHILDRENS PARK N/A       75  65  71 N3                PIMA CO DEQ
ALVERNON/22ND  N/A      N/A N/A N/A N/A               PIMA CO DEQ
CHERRY/GLENN   N/A      N/A N/A N/A N/A               PIMA CO DEQ
TANGERINE      N/A       74 N/A N/A NW3               PIMA CO DEQ
CONTL RANCH    N/A       75  68  80 NW3               PIMA CO DEQ
GRANT/1ST      N/A       77  63  63 SE6               PIMA CO DEQ
CRAYCROFT/22ND N/A      N/A N/A N/A N/A               PIMA CO DEQ
GOLFLINKS/KOLB N/A       75  63  67 E4                PIMA CO DEQ
AJO/12TH       N/A       76  65  69 SE6               PIMA CO DEQ
SAGUARO EAST   N/A      N/A N/A N/A N/A               PIMA CO DEQ
FAIRGROUNDS    N/A      N/A N/A N/A N/A               PIMA CO DEQ
SAGUARO        N/A       76  63  64 CALM              *SABINO CYN
SAN CARLOS     N/A       67  65  93 SW2               *SAN CARLOS
GREEN VALLEY   N/A       70  67  89 NE5               PIMA CO DEQ
HORSE CAMP CYN N/A       68  59  74 E19G30            *ARAVAIPA CYN
RINCON MTNS    N/A       54  54  100 E10G17           *NR MANNING CAMP
$$

AZZ509>511-180815-
LOCATION       SKY/WX    TMP DP  RH WIND       PRES   REMARKS
SAFFORD        CLOUDY    68  64  87 SE9       29.93S
STRAY HORSE    N/A       53  51  92 NE3               *
TRAIL CABIN    N/A       57  55  94 E9G13             *N OF GRANVILLE
BLACK HILLS    N/A       68  62  82 SE5               *N OF FT THOMAS
DRY LAKE       N/A       53  53  100 E7G13            *NATANES MTNS
NOON CREEK     N/A       62  61  98 CALM              *PINALENO MTNS
COLUMBINE      N/A       50  49  97 S4G11             *PINALENO MTNS
GUTHRIE        N/A       56  55  97 E11G17            *SW OF GUTHRIE
$$

AZZ502-503-513-180815-
LOCATION       SKY/WX    TMP DP  RH WIND       PRES   REMARKS
NOGALES        CLOUDY    67  65  93 SE5       29.89R
SELLS          N/A       74  64  71 N3G10             *
SASABE         N/A       68  66  94 CALM              *ALTAR VLY
HOPKINS        N/A       57  57  100 E22G27           *SANTA RITA MTNS
CARR CYN       N/A       62  61  97 E2G10             *W OF HEREFORD
$$

AZZ507-508-512-180815-
LOCATION       SKY/WX    TMP DP  RH WIND       PRES   REMARKS
SIERRA VISTA   RAIN      64  63  94 N7        29.94S FOG
DOUGLAS        HVY RAIN  65  63  93 SE18G26   29.94S FOG
EMPIRE MTNS    N/A       63  63  99 N6G10             *LAS CIENEGAS NCA
MULESHOE RANCH N/A       65  59  81 E12G23            *PRESERVE
HEADQUARTERS   N/A       61  59  92 E7G13             *CHIRICAHUA MTNS
$$

.............................NOTES.............................
THIS IS AN AUTOMATED COLLECTIVE WITH MINIMAL QUALITY CONTROL.
PIMA CO DEQ SITES HAVE NONSTANDARD WIND SENSOR HEIGHTS.
PIMA CO DEQ SITES DO NOT REPORT WIND GUSTS.
* INDICATES WIND SENSORS LOCATED AT 20 FEET INSTEAD OF 33 FEET.
..............................KEY..............................
SKY/WX - SKY CONDITION/WEATHER
TMP    - TEMPERATURE IN FAHRENHEIT
DP     - DEWPOINT IN FAHRENHEIT
RH     - RELATIVE HUMIDITY IN PERCENT
WIND   - DIRECTION AND SPEED IN MILES PER HOUR (MPH)
VRB    - VARIABLE WIND DIRECTION
PRES   - MEAN SEA LEVEL PRESSURE IN INCHES OF MERCURY
         F - FALLING PRESSURE   R - RISING PRESSURE
         S - STEADY PRESSURE
VSB    - VISIBILITY IN MILES
HX     - HEAT INDEX IN FAHRENHEIT
WCI    - WIND CHILL INDEX IN FAHRENHEIT
N/A    - NOT AVAILABLE
AFB    - AIR FORCE BASE
         DAVIS-MONTHAN IS DAVIS-MONTHAN AIR FORCE BASE
CYN    - CANYON
MTNS   - MOUNTAINS
NCA    - NATIONAL CONSERVATION AREA
NR     - NEAR
VLY    - VALLEY
CONTL  - CONTINENTAL
PIMA CO DEQ - PIMA COUNTY DEPT OF ENVIRONMENTAL QUALITY



USA.gov is the U.S. government's official web portal to all federal, state and local government web resources and services.